Flag for U.S.A. Weather past 2 weeks in Rapid City, South Dakota, U.S.A.

Now
55 °F

Clear.


Feels Like: 53 °F
Forecast: 43 / 60 °F
Wind: 8 mph from Northwest

Location: Ellsworth Air Force Base

Current Time: May 28, 2015 at 10:32:29 PM

Latest Report: May 28, 2015 at 9:58 PM


Visibility: 10 mi

Pressure: 29.96 "Hg

Humidity: 86%

Dew point: 51 °F

Location of Rapid CityLocation

Historic Weather in Rapid City — Graph

°F

Rapid City temperature yesterday

Maximum temperature yesterday: 72 °F (at 6:58 PM)
Minimum temperature yesterday: 52 °F (at 5:58 AM)
Average temperature yesterday: 62 °F

Past Weeks' High & Low Weather Summary

 TemperatureHumidityPressure
High72 °F (May 16, 3:58 PM)100% (May 14, 12:58 AM)30.45 "Hg (May 14, 12:58 AM)
Low35 °F (May 21, 3:58 AM)25% (May 18, 3:58 PM)29.52 "Hg (May 16, 3:58 PM)
Average52 °F81%30.00 "Hg
* Reported May 13 7:58 PM — May 28 7:58 PM, Rapid City, Weather by CustomWeather, © 2015

Note: Actual official high and low records may vary slightly from our data, if they occured in-between our weather recording intervals... More about our weather records

Advertising

Rapid City weather history for previous 24 hours

 ConditionsComfort  
Time TempWeatherWind HumidityBarometerVisibility
7:58 PM
Thu, May 28
59 °FBroken clouds.17 mph84%29.93 "Hg10 mi
6:58 PM59 °FPartly sunny.16 mph87%29.95 "Hg10 mi
6:49 PM59 °FPartly sunny.15 mph88%29.96 "Hg10 mi
5:58 PM57 °FRain. Overcast.12 mph96%29.92 "Hg7 mi
5:04 PM61 °FThunderstorms. More clouds than sun.13 mph77%29.96 "Hg5 mi
3:58 PM66 °FMostly cloudy.20 mph64%29.89 "Hg10 mi
2:58 PM69 °FScattered clouds.8 mph53%29.89 "Hg10 mi
1:58 PM68 °FPassing clouds.5 mph65%29.89 "Hg8 mi
12:58 PM65 °FLight rain. Mostly cloudy.9 mph73%29.93 "Hg10 mi
11:58 AM71 °FPassing clouds.7 mph52%29.92 "Hg10 mi
10:58 AM69 °FSunny.13 mph55%29.92 "Hg10 mi
9:58 AM67 °FSunny.10 mph60%29.91 "Hg10 mi
8:58 AM64 °FSunny.12 mph65%29.91 "Hg10 mi
7:58 AM60 °FSunny.3 mph85%29.91 "Hg10 mi
6:58 AM56 °FSunny.2 mph100%29.89 "Hg10 mi
5:58 AM53 °FSunny.3 mph100%29.88 "Hg8 mi
4:58 AM57 °FPassing clouds.12 mph91%29.87 "Hg10 mi
3:58 AM57 °FLight rain. Passing clouds.13 mph95%29.89 "Hg10 mi
2:58 AM56 °FPassing clouds.3 mph100%29.89 "Hg10 mi
1:58 AM55 °FClear.No wind100%29.89 "Hg10 mi
12:58 AM55 °FClear.5 mph100%29.89 "Hg7 mi
11:58 PM
Wed, May 27
56 °FFog.2 mph100%29.90 "Hg6 mi
10:58 PM58 °FPassing clouds.7 mph98%29.91 "Hg7 mi
Weather by CustomWeather, © 2015

See weather overviewHow to use our weather pages